TimeEST,TemperatureF,Dew PointF,Humidity,Sea Level PressureIn,VisibilityMPH,Wind Direction,Wind SpeedMPH,Gust SpeedMPH,PrecipitationIn,Events,Conditions,WindDirDegrees,DateUTC
12:15 AM,26.6,19.4,74,30.04,10.0,ESE,5.8,-,N/A,,Overcast,110,2013-01-16 05:15:00
12:35 AM,26.6,19.4,74,30.03,10.0,ESE,5.8,-,N/A,,Overcast,110,2013-01-16 05:35:00
1:15 AM,26.6,19.4,74,30.02,10.0,SE,4.6,-,N/A,,Overcast,140,2013-01-16 06:15:00
1:35 AM,26.6,19.4,74,30.01,10.0,SE,4.6,-,N/A,,Overcast,140,2013-01-16 06:35:00
1:55 AM,26.6,19.4,74,30.00,10.0,SE,6.9,-,N/A,,Overcast,130,2013-01-16 06:55:00
2:35 AM,26.6,19.4,74,29.99,10.0,SSE,4.6,-,N/A,,Overcast,150,2013-01-16 07:35:00
2:55 AM,26.6,19.4,74,29.98,10.0,SSE,5.8,-,N/A,,Overcast,150,2013-01-16 07:55:00
3:15 AM,26.6,19.4,74,29.97,10.0,SE,6.9,-,N/A,,Overcast,140,2013-01-16 08:15:00
3:35 AM,26.6,19.4,74,29.97,10.0,South,4.6,-,N/A,,Overcast,170,2013-01-16 08:35:00
3:55 AM,26.6,21.2,80,29.97,10.0,South,6.9,-,N/A,,Overcast,190,2013-01-16 08:55:00
4:15 AM,26.6,23.0,86,29.95,10.0,South,8.1,-,N/A,,Overcast,180,2013-01-16 09:15:00
4:35 AM,26.6,23.0,86,29.95,10.0,South,5.8,-,N/A,,Overcast,190,2013-01-16 09:35:00
4:55 AM,26.6,24.8,93,29.94,10.0,South,3.5,-,N/A,,Overcast,190,2013-01-16 09:55:00
5:15 AM,26.6,24.8,93,29.93,3.0,SSW,4.6,-,N/A,Snow,Light Snow,200,2013-01-16 10:15:00
5:35 AM,26.6,24.8,93,29.92,7.0,SSW,5.8,-,N/A,Snow,Light Snow,200,2013-01-16 10:35:00
5:55 AM,26.6,24.8,93,29.92,4.0,SSW,4.6,-,N/A,Snow,Light Snow,200,2013-01-16 10:55:00
6:15 AM,26.6,24.8,93,29.92,3.0,South,5.8,-,N/A,Snow,Light Snow,190,2013-01-16 11:15:00
6:55 AM,26.6,24.8,93,29.89,10.0,SSE,5.8,-,N/A,,Overcast,160,2013-01-16 11:55:00
7:35 AM,26.6,24.8,93,29.89,10.0,South,3.5,-,N/A,,Overcast,180,2013-01-16 12:35:00
7:55 AM,26.6,24.8,93,29.88,10.0,Calm,Calm,-,N/A,,Overcast,0,2013-01-16 12:55:00
8:15 AM,26.6,24.8,93,29.88,10.0,South,3.5,-,N/A,,Overcast,180,2013-01-16 13:15:00
8:35 AM,26.6,24.8,93,29.89,4.0,Calm,Calm,-,N/A,Snow,Light Snow,0,2013-01-16 13:35:00
8:55 AM,26.6,24.8,93,29.88,4.0,South,4.6,-,N/A,,Overcast,180,2013-01-16 13:55:00
9:15 AM,26.6,26.6,100,29.88,2.5,SSW,3.5,-,N/A,Snow,Light Snow,200,2013-01-16 14:15:00
9:35 AM,26.6,26.6,100,29.86,2.5,South,5.8,-,N/A,Snow,Light Snow,190,2013-01-16 14:35:00
9:55 AM,26.6,26.6,100,29.85,4.0,SSW,6.9,-,N/A,,Overcast,200,2013-01-16 14:55:00
10:15 AM,26.6,26.6,100,29.85,7.0,SSW,6.9,-,N/A,,Overcast,210,2013-01-16 15:15:00
10:35 AM,26.6,26.6,100,29.84,10.0,South,9.2,-,N/A,,Overcast,190,2013-01-16 15:35:00
10:55 AM,26.6,26.6,100,29.82,10.0,SSW,8.1,-,N/A,,Overcast,200,2013-01-16 15:55:00
11:15 AM,28.4,26.6,93,29.80,10.0,SSW,6.9,-,N/A,,Overcast,210,2013-01-16 16:15:00
11:35 AM,28.4,26.6,93,29.79,10.0,SSW,6.9,-,N/A,,Overcast,200,2013-01-16 16:35:00
11:55 AM,28.4,26.6,93,29.78,10.0,SSW,6.9,-,N/A,,Overcast,200,2013-01-16 16:55:00
12:15 PM,28.4,26.6,93,29.77,10.0,SSW,8.1,-,N/A,,Overcast,210,2013-01-16 17:15:00
12:35 PM,28.4,26.6,93,29.77,10.0,SSW,5.8,-,N/A,,Overcast,210,2013-01-16 17:35:00
12:55 PM,28.4,26.6,93,29.77,10.0,SSW,6.9,-,N/A,,Overcast,210,2013-01-16 17:55:00
1:15 PM,30.2,28.4,93,29.75,10.0,SSW,5.8,-,N/A,,Overcast,210,2013-01-16 18:15:00
1:35 PM,30.2,28.4,93,29.75,10.0,SSW,4.6,-,N/A,,Overcast,210,2013-01-16 18:35:00
1:55 PM,30.2,28.4,93,29.74,10.0,SSW,4.6,-,N/A,,Overcast,210,2013-01-16 18:55:00
2:15 PM,32.0,28.4,87,29.74,10.0,SW,6.9,-,N/A,,Overcast,220,2013-01-16 19:15:00
2:35 PM,32.0,28.4,87,29.74,10.0,SW,6.9,-,N/A,,Overcast,220,2013-01-16 19:35:00
2:55 PM,32.0,28.4,87,29.74,10.0,WSW,3.5,-,N/A,,Mostly Cloudy,240,2013-01-16 19:55:00
3:15 PM,32.0,28.4,87,29.75,10.0,WSW,3.5,-,N/A,,Scattered Clouds,240,2013-01-16 20:15:00
3:35 PM,32.0,28.4,87,29.75,10.0,WSW,6.9,-,N/A,,Scattered Clouds,240,2013-01-16 20:35:00
3:55 PM,32.0,26.6,80,29.75,10.0,WSW,3.5,-,N/A,,Scattered Clouds,250,2013-01-16 20:55:00
4:15 PM,32.0,26.6,80,29.75,10.0,WSW,4.6,-,N/A,,Scattered Clouds,250,2013-01-16 21:15:00
4:35 PM,32.0,26.6,80,29.75,10.0,West,6.9,-,N/A,,Clear,260,2013-01-16 21:35:00
4:55 PM,32.0,24.8,75,29.75,10.0,WSW,3.5,-,N/A,,Clear,250,2013-01-16 21:55:00
5:15 PM,30.2,24.8,80,29.76,10.0,WSW,4.6,-,N/A,,Clear,240,2013-01-16 22:15:00
5:35 PM,30.2,24.8,80,29.77,10.0,Calm,Calm,-,N/A,,Clear,0,2013-01-16 22:35:00
5:55 PM,30.2,24.8,80,29.77,10.0,SW,4.6,-,N/A,,Clear,220,2013-01-16 22:55:00
6:35 PM,30.2,23.0,75,29.78,10.0,WSW,5.8,-,N/A,,Clear,240,2013-01-16 23:35:00
6:55 PM,30.2,23.0,75,29.78,10.0,SW,5.8,-,N/A,,Clear,220,2013-01-16 23:55:00
7:15 PM,30.2,23.0,75,29.78,10.0,SW,5.8,-,N/A,,Clear,230,2013-01-17 00:15:00
7:35 PM,30.2,23.0,75,29.79,10.0,SW,8.1,-,N/A,,Clear,230,2013-01-17 00:35:00
7:55 PM,30.2,21.2,69,29.79,10.0,SW,6.9,-,N/A,,Clear,230,2013-01-17 00:55:00
8:15 PM,30.2,21.2,69,29.79,10.0,WSW,5.8,-,N/A,,Clear,240,2013-01-17 01:15:00
8:35 PM,30.2,21.2,69,29.79,10.0,SW,8.1,16.1,N/A,,Clear,230,2013-01-17 01:35:00
8:55 PM,28.4,21.2,74,29.80,10.0,SW,6.9,-,N/A,,Clear,220,2013-01-17 01:55:00
9:15 PM,28.4,21.2,74,29.79,10.0,SW,4.6,-,N/A,,Clear,230,2013-01-17 02:15:00
9:35 PM,28.4,21.2,74,29.79,10.0,SW,6.9,-,N/A,,Clear,230,2013-01-17 02:35:00
9:55 PM,28.4,21.2,74,29.79,10.0,WSW,8.1,-,N/A,,Mostly Cloudy,240,2013-01-17 02:55:00
10:15 PM,28.4,21.2,74,29.79,10.0,West,6.9,-,N/A,,Overcast,270,2013-01-17 03:15:00
10:35 PM,30.2,21.2,69,29.78,10.0,WSW,4.6,-,N/A,,Overcast,240,2013-01-17 03:35:00
10:55 PM,30.2,21.2,69,29.80,10.0,WSW,5.8,18.4,N/A,,Overcast,250,2013-01-17 03:55:00
11:15 PM,30.2,21.2,69,29.81,10.0,West,10.4,16.1,N/A,,Overcast,260,2013-01-17 04:15:00
11:35 PM,30.2,21.2,69,29.81,10.0,WSW,9.2,17.3,N/A,,Overcast,250,2013-01-17 04:35:00
11:55 PM,30.2,21.2,69,29.82,10.0,West,9.2,26.5,N/A,,Overcast,270,2013-01-17 04:55:00